Location: Columbia
(38.9520°N, 92.3340°W)
Time: 22:50:30
(UTC-05:00)

Cosmos 2219 Rocket - Visible Passes

Search period start: 16 April 2014 00:00
Search period end: 26 April 2014 00:00
Orbit: 827 x 848 km, 71.0° (Epoch: 16 April)

Date Brightness Start Highest point End Pass type
(mag) Time Alt. Az. Time Alt. Az. Time Alt. Az.
16 Apr 3.2 21:15:01 10° NW 21:20:19 43° WSW 21:25:35 10° S visible
17 Apr 3.1 20:58:43 10° NW 21:04:07 47° WSW 21:09:26 10° S visible
18 Apr 3.0 20:42:27 10° NNW 20:47:54 51° WSW 20:53:17 10° S visible
19 Apr 2.9 20:26:10 10° NNW 20:31:40 55° WSW 20:37:07 10° S visible
20 Apr 2.8 20:09:54 10° NNW 20:15:27 60° WSW 20:20:56 10° S visible
